QPF
0.00 0.00 0.00 0.00 0.00 0.00 0.00 0.00 0.00 0.00 0.00 0.00 0.00 0.01 0.01 0.01 0.02 0.03 0.04 0.03 0.02 0.03 0.03 0.04 0.05 0.04 0.04 0.03 0.02 0.04 0.04 0.04 0.06 0.05 0.05 0.04 0.05 0.06 0.03 0.03 0.03 0.04 0.04
0.00 0.00 0.00 0.00 0.00 0.00 0.00 0.00 0.00 0.00 0.00 0.00 0.00 0.01 0.00 0.01 0.02 0.02 0.02 0.03 0.03 0.03 0.03 0.03 0.06 0.04 0.04 0.03 0.03 0.03 0.03 0.03 0.05 0.05 0.05 0.04 0.04 0.07 0.05 0.03 0.03 0.04 0.05
0.00 0.00 0.00 0.00 0.00 0.00 0.00 0.00 0.00 0.00 0.00 0.00 0.01 0.01 0.00 0.01 0.02 0.01 0.01 0.02 0.02 0.02 0.03 0.03 0.04 0.03 0.04 0.03 0.03 0.03 0.03 0.03 0.04 0.05 0.05 0.04 0.03 0.05 0.06 0.04 0.03 0.03 0.04
0.00 0.00 0.00 0.00 0.00 0.00 0.00 0.00 0.00 0.00 0.00 0.01 0.01 0.00 0.00 0.00 0.01 0.01 0.01 0.02 0.02 0.02 0.02 0.03 0.03 0.03 0.05 0.04 0.03 0.04 0.04 0.04 0.04 0.06 0.05 0.05 0.04 0.04 0.05 0.07 0.06 0.05 0.04
0.00 0.00 0.00 0.00 0.00 0.00 0.00 0.00 0.00 0.00 0.00 0.00 0.00 0.00 0.00 0.00 0.00 0.01 0.01 0.01 0.01 0.02 0.02 0.02 0.02 0.02 0.02 0.03 0.03 0.03 0.04 0.05 0.04 0.05 0.04 0.06 0.06 0.05 0.05 0.06 0.08 0.08 0.07
0.00 0.00 0.00 0.00 0.00 0.00 0.00 0.00 0.00 0.00 0.00 0.00 0.00 0.01 0.01 0.01 0.00 0.00 0.00 0.00 0.00 0.01 0.01 0.02 0.01 0.01 0.02 0.02 0.02 0.02 0.03 0.04 0.05 0.05 0.04 0.05 0.06 0.06 0.04 0.04 0.05 0.06 0.07
0.00 0.00 0.00 0.00 0.00 0.00 0.00 0.00 0.00 0.00 0.00 0.00 0.00 0.00 0.00 0.00 0.00 0.00 0.00 0.00 0.00 0.00 0.00 0.02 0.02 0.02 0.03 0.04 0.04 0.03 0.03 0.03 0.04 0.05 0.04 0.04 0.05 0.06 0.06 0.05 0.04 0.04 0.04
0.00 0.00 0.00 0.00 0.00 0.00 0.00 0.00 0.00 0.00 0.00 0.00 0.00 0.00 0.00 0.00 0.00 0.00 0.00 0.00 0.00 0.00 0.00 0.01 0.01 0.02 0.02 0.03 0.03 0.03 0.04 0.03 0.03 0.04 0.03 0.02 0.03 0.04 0.06 0.05 0.05 0.04 0.03
0.00 0.00 0.00 0.00 0.00 0.00 0.00 0.00 0.00 0.00 0.00 0.00 0.00 0.00 0.00 0.00 0.00 0.00 0.00 0.00 0.00 0.00 0.00 0.00 0.00 0.01 0.01 0.02 0.02 0.02 0.03 0.03 0.03 0.03 0.03 0.02 0.02 0.02 0.03 0.03 0.04 0.04 0.04
0.00 0.00 0.00 0.00 0.00 0.00 0.00 0.00 0.00 0.00 0.00 0.00 0.00 0.00 0.00 0.00 0.00 0.00 0.00 0.00 0.00 0.00 0.00 0.00 0.00 0.00 0.00 0.01 0.01 0.01 0.01 0.02 0.02 0.02 0.02 0.02 0.01 0.01 0.02 0.03 0.04 0.04 0.05
0.00 0.00 0.00 0.00 0.00 0.00 0.00 0.00 0.00 0.00 0.00 0.00 0.00 0.00 0.00 0.00 0.00 0.00 0.00 0.00 0.00 0.00 0.00 0.00 0.00 0.00 0.00 0.00 0.00 0.00 0.00 0.00 0.01 0.01 0.01 0.01 0.01 0.01 0.01 0.02 0.03 0.03 0.03
0.00 0.00 0.00 0.00 0.00 0.00 0.00 0.00 0.00 0.01 0.00 0.00 0.00 0.00 0.00 0.00 0.00 0.00 0.00 0.00 0.00 0.00 0.00 0.00 0.00 0.00 0.00 0.00 0.00 0.00 0.00 0.00 0.00 0.00 0.00 0.01 0.01 0.00 0.00 0.01 0.01 0.01 0.02
0.00 0.00 0.00 0.00 0.00 0.00 0.00 0.00 0.00 0.01 0.01 0.01 0.01 0.01 0.00 0.00 0.00 0.00 0.00 0.00 0.00 0.00 0.00 0.00 0.00 0.00 0.00 0.00 0.00 0.00 0.00 0.00 0.00 0.00 0.00 0.01 0.00 0.00 0.00 0.01 0.00 0.00 0.01
0.00 0.00 0.00 0.00 0.00 0.00 0.00 0.00 0.00 0.01 0.01 0.01 0.01 0.01 0.01 0.00 0.00 0.00 0.01 0.00 0.00 0.00 0.00 0.00 0.00 0.00 0.00 0.00 0.00 0.00 0.00 0.00 0.00 0.00 0.00 0.00 0.00 0.00 0.00 0.00 0.00 0.00 0.00
0.00 0.00 0.00 0.00 0.00 0.00 0.00 0.00 0.00 0.01 0.01 0.01 0.01 0.01 0.01 0.01 0.01 0.01 0.01 0.01 0.01 0.00 0.00 0.00 0.00 0.00 0.00 0.00 0.00 0.00 0.00 0.00 0.00 0.00 0.00 0.00 0.00 0.00 0.00 0.00 0.00 0.00 0.00
0.00 0.00 0.00 0.00 0.00 0.00 0.00 0.00 0.00 0.00 0.01 0.01 0.01 0.01 0.01 0.01 0.01 0.01 0.01 0.01 0.01 0.01 0.00 0.00 0.00 0.00 0.00 0.00 0.00 0.00 0.00 0.00 0.00 0.00 0.00 0.00 0.00 0.00 0.01 0.01 0.00 0.00 0.00
0.00 0.00 0.00 0.00 0.00 0.00 0.00 0.00 0.00 0.01 0.01 0.01 0.01 0.01 0.01 0.01 0.01 0.01 0.01 0.01 0.01 0.02 0.01 0.00 0.00 0.00 0.00 0.00 0.00 0.00 0.00 0.00 0.00 0.00 0.00 0.00 0.00 0.00 0.00 0.01 0.01 0.00 0.00
0.00 0.00 0.00 0.00 0.00 0.00 0.00 0.00 0.01 0.01 0.02 0.02 0.02 0.02 0.01 0.02 0.02 0.02 0.02 0.02 0.02 0.02 0.01 0.01 0.00 0.00 0.00 0.00 0.00 0.00 0.00 0.00 0.00 0.00 0.00 0.00 0.00 0.00 0.00 0.00 0.00 0.00 0.00
0.00 0.00 0.00 0.00 0.00 0.00 0.01 0.01 0.01 0.01 0.01 0.02 0.03 0.03 0.03 0.03 0.03 0.03 0.04 0.03 0.03 0.02 0.02 0.01 0.01 0.00 0.00 0.00 0.00 0.00 0.00 0.00 0.00 0.00 0.00 0.00 0.00 0.00 0.00 0.00 0.00 0.00 0.00
0.00 0.00 0.01 0.01 0.01 0.01 0.01 0.01 0.01 0.01 0.01 0.02 0.03 0.04 0.05 0.05 0.05 0.05 0.05 0.05 0.04 0.03 0.03 0.02 0.02 0.01 0.00 0.00 0.00 0.00 0.00 0.00 0.00 0.00 0.00 0.00 0.00 0.00 0.00 0.00 0.00 0.00 0.00
0.01 0.01 0.01 0.01 0.01 0.01 0.01 0.01 0.01 0.01 0.02 0.03 0.04 0.05 0.06 0.07 0.07 0.07 0.07 0.06 0.06 0.05 0.04 0.03 0.03 0.02 0.01 0.01 0.00 0.00 0.00 0.00 0.00 0.00 0.00 0.00 0.00 0.00 0.00 0.00 0.00 0.00 0.00
0.01 0.01 0.01 0.01 0.01 0.01 0.01 0.01 0.01 0.01 0.02 0.03 0.04 0.06 0.08 0.08 0.09 0.08 0.07 0.07 0.07 0.06 0.05 0.05 0.04 0.03 0.02 0.01 0.01 0.01 0.01 0.00 0.00 0.00 0.00 0.00 0.00 0.00 0.00 0.00 0.00 0.00 0.00
0.01 0.01 0.01 0.01 0.01 0.01 0.01 0.01 0.01 0.02 0.02 0.02 0.03 0.05 0.07 0.09 0.10 0.10 0.09 0.08 0.08 0.08 0.07 0.06 0.05 0.04 0.03 0.03 0.01 0.01 0.01 0.01 0.00 0.00 0.00 0.00 0.00 0.00 0.00 0.00 0.00 0.00 0.00
0.01 0.02 0.02 0.02 0.02 0.02 0.01 0.01 0.01 0.02 0.02 0.02 0.03 0.04 0.05 0.07 0.08 0.10 0.10 0.09 0.09 0.08 0.08 0.08 0.07 0.06 0.04 0.04 0.03 0.02 0.01 0.01 0.01 0.00 0.00 0.00 0.00 0.00 0.00 0.00 0.00 0.00 0.00
0.02 0.02 0.02 0.02 0.02 0.02 0.02 0.02 0.02 0.02 0.02 0.03 0.03 0.04 0.05 0.07 0.08 0.10 0.10 0.09 0.09 0.09 0.09 0.08 0.08 0.08 0.07 0.06 0.05 0.04 0.02 0.02 0.01 0.00 0.00 0.00 0.00 0.00 0.00 0.00 0.00 0.00 0.00
0.02 0.02 0.02 0.02 0.02 0.02 0.02 0.02 0.02 0.03 0.03 0.03 0.03 0.04 0.05 0.06 0.08 0.09 0.11 0.10 0.10 0.09 0.09 0.09 0.08 0.07 0.07 0.06 0.05 0.05 0.04 0.02 0.01 0.01 0.00 0.00 0.00 0.00 0.00 0.00 0.00 0.00 0.00
MSLP
1012.27 1012.02 1011.83 1011.68 1011.57 1011.49 1011.42 1011.39 1011.38 1011.39 1011.45 1011.54 1011.66 1011.81 1011.96 1012.10 1012.21 1012.27 1012.29 1012.24 1012.15 1012.02 1011.86 1011.71 1011.59 1011.50 1011.47 1011.50 1011.59 1011.74 1011.93 1012.14 1012.37 1012.58 1012.77 1012.92 1013.03 1013.10 1013.13 1013.13 1013.11 1013.08 1013.05
1012.52 1012.18 1011.89 1011.65 1011.45 1011.28 1011.13 1011.01 1010.93 1010.89 1010.90 1010.96 1011.07 1011.22 1011.40 1011.58 1011.75 1011.87 1011.95 1011.96 1011.91 1011.81 1011.68 1011.54 1011.41 1011.32 1011.28 1011.31 1011.40 1011.56 1011.76 1011.99 1012.23 1012.46 1012.65 1012.81 1012.92 1012.98 1013.00 1012.99 1012.96 1012.93 1012.90
1012.91 1012.51 1012.14 1011.81 1011.52 1011.25 1011.00 1010.78 1010.60 1010.47 1010.41 1010.41 1010.48 1010.61 1010.79 1011.00 1011.20 1011.38 1011.51 1011.58 1011.58 1011.53 1011.44 1011.32 1011.22 1011.14 1011.12 1011.16 1011.26 1011.43 1011.64 1011.88 1012.13 1012.36 1012.55 1012.70 1012.80 1012.86 1012.87 1012.85 1012.81 1012.77 1012.73
1013.42 1012.97 1012.54 1012.14 1011.76 1011.39 1011.03 1010.69 1010.40 1010.15 1009.98 1009.90 1009.90 1009.98 1010.14 1010.34 1010.56 1010.77 1010.95 1011.08 1011.14 1011.15 1011.11 1011.05 1010.99 1010.95 1010.96 1011.03 1011.15 1011.33 1011.55 1011.79 1012.03 1012.26 1012.45 1012.60 1012.69 1012.74 1012.75 1012.72 1012.68 1012.64 1012.61
1013.97 1013.49 1013.03 1012.57 1012.10 1011.63 1011.16 1010.71 1010.28 1009.91 1009.61 1009.41 1009.32 1009.32 1009.42 1009.59 1009.81 1010.03 1010.25 1010.42 1010.55 1010.63 1010.67 1010.68 1010.69 1010.72 1010.77 1010.88 1011.03 1011.22 1011.44 1011.68 1011.92 1012.14 1012.33 1012.47 1012.57 1012.63 1012.64 1012.63 1012.60 1012.56 1012.53
1014.48 1014.00 1013.51 1013.00 1012.47 1011.91 1011.33 1010.75 1010.20 1009.69 1009.26 1008.93 1008.72 1008.62 1008.64 1008.75 1008.93 1009.15 1009.39 1009.61 1009.80 1009.96 1010.09 1010.19 1010.29 1010.39 1010.51 1010.66 1010.84 1011.05 1011.27 1011.51 1011.74 1011.96 1012.15 1012.30 1012.42 1012.50 1012.55 1012.57 1012.57 1012.55 1012.52
1014.87 1014.39 1013.88 1013.33 1012.75 1012.12 1011.45 1010.77 1010.10 1009.47 1008.90 1008.44 1008.10 1007.88 1007.80 1007.83 1007.95 1008.15 1008.38 1008.64 1008.89 1009.12 1009.35 1009.55 1009.74 1009.93 1010.13 1010.33 1010.55 1010.77 1011.00 1011.24 1011.46 1011.68 1011.88 1012.06 1012.22 1012.35 1012.45 1012.52 1012.56 1012.58 1012.57
1015.07 1014.59 1014.07 1013.50 1012.88 1012.20 1011.47 1010.71 1009.94 1009.21 1008.53 1007.94 1007.47 1007.14 1006.94 1006.87 1006.92 1007.06 1007.28 1007.55 1007.84 1008.15 1008.46 1008.76 1009.06 1009.34 1009.61 1009.87 1010.12 1010.37 1010.61 1010.84 1011.07 1011.29 1011.52 1011.74 1011.94 1012.14 1012.31 1012.46 1012.57 1012.64 1012.66
1015.06 1014.57 1014.05 1013.47 1012.83 1012.12 1011.36 1010.55 1009.73 1008.92 1008.15 1007.46 1006.88 1006.43 1006.12 1005.94 1005.90 1005.98 1006.15 1006.41 1006.73 1007.09 1007.47 1007.86 1008.24 1008.61 1008.96 1009.27 1009.57 1009.84 1010.09 1010.33 1010.56 1010.81 1011.06 1011.33 1011.60 1011.88 1012.14 1012.37 1012.56 1012.69 1012.76
1014.87 1014.37 1013.84 1013.27 1012.63 1011.92 1011.15 1010.32 1009.47 1008.62 1007.80 1007.04 1006.38 1005.83 1005.40 1005.12 1004.98 1004.97 1005.09 1005.31 1005.62 1006.01 1006.43 1006.89 1007.34 1007.78 1008.20 1008.58 1008.91 1009.21 1009.48 1009.73 1009.99 1010.25 1010.54 1010.86 1011.20 1011.56 1011.91 1012.23 1012.50 1012.71 1012.85
1014.53 1014.03 1013.51 1012.94 1012.31 1011.61 1010.86 1010.05 1009.21 1008.36 1007.52 1006.72 1005.99 1005.36 1004.85 1004.46 1004.21 1004.11 1004.14 1004.30 1004.58 1004.96 1005.40 1005.89 1006.40 1006.90 1007.37 1007.80 1008.18 1008.51 1008.81 1009.09 1009.37 1009.67 1010.00 1010.37 1010.77 1011.20 1011.63 1012.03 1012.39 1012.68 1012.88
1014.13 1013.63 1013.10 1012.53 1011.92 1011.26 1010.54 1009.77 1008.96 1008.13 1007.30 1006.50 1005.74 1005.05 1004.45 1003.97 1003.62 1003.41 1003.35 1003.43 1003.64 1003.98 1004.41 1004.90 1005.44 1005.97 1006.49 1006.97 1007.40 1007.78 1008.12 1008.43 1008.75 1009.08 1009.45 1009.87 1010.32 1010.81 1011.30 1011.78 1012.21 1012.57 1012.83
1013.72 1013.20 1012.66 1012.11 1011.51 1010.87 1010.19 1009.47 1008.71 1007.93 1007.13 1006.34 1005.57 1004.85 1004.20 1003.64 1003.19 1002.87 1002.70 1002.68 1002.81 1003.08 1003.46 1003.93 1004.46 1005.02 1005.58 1006.10 1006.58 1007.01 1007.40 1007.77 1008.13 1008.51 1008.92 1009.37 1009.87 1010.40 1010.94 1011.46 1011.94 1012.36 1012.69
1013.31 1012.77 1012.22 1011.66 1011.07 1010.45 1009.80 1009.12 1008.42 1007.68 1006.93 1006.17 1005.42 1004.69 1004.00 1003.37 1002.84 1002.42 1002.14 1002.01 1002.04 1002.22 1002.53 1002.96 1003.47 1004.03 1004.60 1005.17 1005.70 1006.20 1006.65 1007.09 1007.51 1007.94 1008.40 1008.89 1009.42 1009.97 1010.54 1011.09 1011.61 1012.06 1012.44
1012.90 1012.34 1011.76 1011.17 1010.57 1009.96 1009.33 1008.68 1008.02 1007.34 1006.64 1005.92 1005.19 1004.46 1003.76 1003.09 1002.49 1001.99 1001.60 1001.36 1001.28 1001.36 1001.59 1001.95 1002.42 1002.97 1003.56 1004.16 1004.75 1005.31 1005.85 1006.36 1006.85 1007.35 1007.86 1008.39 1008.95 1009.53 1010.11 1010.68 1011.21 1011.69 1012.11
1012.47 1011.87 1011.25 1010.62 1009.99 1009.36 1008.73 1008.10 1007.46 1006.82 1006.17 1005.49 1004.80 1004.10 1003.39 1002.70 1002.06 1001.48 1001.01 1000.67 1000.49 1000.46 1000.60 1000.89 1001.31 1001.83 1002.42 1003.05 1003.70 1004.33 1004.95 1005.55 1006.14 1006.71 1007.29 1007.87 1008.47 1009.07 1009.66 1010.24 1010.78 1011.28 1011.72
1011.99 1011.34 1010.66 1009.98 1009.30 1008.63 1007.98 1007.35 1006.74 1006.12 1005.51 1004.88 1004.22 1003.55 1002.86 1002.16 1001.49 1000.87 1000.33 999.91 999.63 999.51 999.56 999.77 1000.13 1000.62 1001.20 1001.86 1002.55 1003.26 1003.97 1004.66 1005.34 1006.01 1006.66 1007.31 1007.95 1008.58 1009.20 1009.79 1010.35 1010.86 1011.32
1011.44 1010.73 1009.99 1009.25 1008.52 1007.80 1007.13 1006.48 1005.87 1005.27 1004.69 1004.09 1003.48 1002.84 1002.17 1001.48 1000.81 1000.16 999.57 999.09 998.73 998.53 998.50 998.63 998.93 999.38 999.95 1000.62 1001.35 1002.12 1002.91 1003.70 1004.47 1005.23 1005.98 1006.70 1007.41 1008.09 1008.74 1009.36 1009.94 1010.47 1010.95
1010.81 1010.04 1009.25 1008.46 1007.67 1006.92 1006.21 1005.55 1004.93 1004.35 1003.78 1003.21 1002.63 1002.02 1001.38 1000.72 1000.04 999.39 998.78 998.25 997.84 997.58 997.47 997.54 997.78 998.19 998.73 999.40 1000.16 1000.97 1001.83 1002.70 1003.56 1004.42 1005.26 1006.07 1006.85 1007.59 1008.29 1008.95 1009.57 1010.13 1010.64
1010.12 1009.32 1008.50 1007.66 1006.84 1006.06 1005.32 1004.65 1004.02 1003.43 1002.87 1002.32 1001.76 1001.18 1000.56 999.92 999.27 998.62 998.00 997.46 997.01 996.70 996.55 996.56 996.75 997.11 997.63 998.28 999.04 999.89 1000.79 1001.72 1002.67 1003.61 1004.53 1005.43 1006.29 1007.10 1007.87 1008.59 1009.24 1009.84 1010.39
1009.41 1008.60 1007.76 1006.91 1006.08 1005.28 1004.53 1003.84 1003.20 1002.61 1002.04 1001.49 1000.94 1000.37 999.77 999.15 998.51 997.88 997.27 996.73 996.28 995.95 995.76 995.74 995.89 996.22 996.70 997.33 998.08 998.94 999.86 1000.84 1001.84 1002.84 1003.84 1004.82 1005.75 1006.64 1007.48 1008.25 1008.96 1009.61 1010.19
1008.69 1007.90 1007.07 1006.23 1005.41 1004.62 1003.86 1003.16 1002.51 1001.89 1001.31 1000.74 1000.18 999.60 999.00 998.39 997.77 997.16 996.58 996.05 995.62 995.30 995.11 995.08 995.22 995.52 995.98 996.59 997.33 998.17 999.10 1000.09 1001.13 1002.18 1003.23 1004.26 1005.26 1006.21 1007.12 1007.95 1008.72 1009.41 1010.02
1007.98 1007.22 1006.43 1005.63 1004.83 1004.05 1003.30 1002.59 1001.91 1001.26 1000.64 1000.03 999.42 998.82 998.20 997.59 996.98 996.39 995.84 995.36 994.97 994.70 994.55 994.55 994.70 995.00 995.46 996.06 996.78 997.62 998.54 999.53 1000.57 1001.64 1002.72 1003.78 1004.83 1005.83 1006.79 1007.67 1008.48 1009.22 1009.87
1007.27 1006.55 1005.81 1005.05 1004.28 1003.52 1002.76 1002.03 1001.31 1000.61 999.92 999.24 998.57 997.91 997.26 996.63 996.03 995.47 994.98 994.56 994.24 994.04 993.97 994.04 994.24 994.59 995.08 995.69 996.42 997.25 998.16 999.14 1000.17 1001.24 1002.32 1003.40 1004.47 1005.50 1006.49 1007.41 1008.26 1009.02 1009.70
1006.52 1005.86 1005.16 1004.44 1003.69 1002.93 1002.16 1001.39 1000.61 999.83 999.05 998.28 997.53 996.79 996.09 995.43 994.84 994.31 993.88 993.55 993.33 993.25 993.29 993.47 993.77 994.21 994.76 995.42 996.18 997.02 997.94 998.91 999.93 1000.98 1002.05 1003.13 1004.19 1005.23 1006.22 1007.16 1008.03 1008.82 1009.53
1005.73 1005.11 1004.44 1003.75 1003.01 1002.23 1001.43 1000.59 999.73 998.85 997.96 997.08 996.22 995.40 994.64 993.95 993.36 992.87 992.51 992.29 992.20 992.26 992.45 992.78 993.23 993.79 994.45 995.20 996.02 996.90 997.83 998.80 999.81 1000.84 1001.89 1002.95 1003.99 1005.02 1006.01 1006.95 1007.82 1008.63 1009.35
Thickness
5717 5716 5713 5710 5708 5705 5702 5700 5697 5694 5692 5689 5687 5685 5683 5681 5679 5676 5675 5673 5672 5672 5671 5670 5669 5670 5671 5672 5673 5674 5676 5677 5676 5680 5684 5687 5688 5690 5693 5696 5699 5701 5702
5713 5712 5710 5708 5706 5703 5702 5699 5697 5695 5692 5690 5688 5685 5683 5681 5679 5677 5674 5673 5672 5671 5671 5671 5670 5669 5669 5671 5671 5672 5674 5676 5676 5676 5678 5681 5683 5686 5688 5690 5694 5696 5698
5709 5707 5706 5705 5704 5702 5700 5699 5696 5695 5692 5690 5687 5685 5682 5680 5679 5677 5675 5674 5673 5672 5671 5670 5670 5670 5669 5670 5669 5671 5672 5674 5675 5674 5675 5677 5679 5681 5683 5685 5688 5690 5692
5703 5702 5701 5701 5700 5698 5697 5695 5694 5693 5691 5689 5687 5685 5683 5681 5679 5678 5676 5674 5673 5672 5671 5670 5670 5670 5669 5669 5669 5670 5670 5670 5671 5672 5673 5674 5675 5677 5678 5679 5681 5683 5686
5698 5696 5696 5696 5695 5693 5692 5691 5690 5689 5688 5687 5686 5684 5682 5680 5678 5677 5675 5674 5673 5672 5671 5670 5669 5668 5666 5666 5667 5668 5667 5668 5669 5669 5670 5671 5672 5672 5673 5675 5676 5678 5680
5690 5690 5689 5689 5688 5686 5686 5686 5686 5685 5684 5683 5682 5681 5680 5679 5675 5671 5670 5672 5672 5671 5669 5669 5668 5666 5663 5661 5661 5662 5663 5666 5667 5667 5668 5668 5670 5671 5671 5671 5672 5673 5673
5682 5682 5681 5681 5680 5680 5680 5679 5679 5679 5680 5679 5679 5678 5677 5676 5672 5669 5666 5668 5670 5670 5670 5669 5667 5666 5663 5664 5661 5658 5659 5660 5661 5666 5666 5667 5667 5669 5668 5668 5668 5668 5668
5673 5672 5672 5672 5671 5672 5672 5671 5672 5674 5675 5674 5675 5675 5674 5673 5669 5666 5664 5666 5668 5669 5668 5667 5666 5665 5663 5663 5663 5661 5661 5661 5660 5662 5665 5665 5665 5665 5665 5665 5665 5663 5663
5661 5661 5662 5662 5662 5662 5663 5664 5665 5666 5668 5669 5670 5671 5670 5671 5667 5664 5661 5665 5666 5667 5666 5665 5665 5664 5660 5656 5659 5660 5658 5658 5655 5655 5656 5657 5656 5657 5659 5660 5658 5658 5657
5649 5649 5650 5651 5651 5652 5654 5656 5657 5658 5659 5662 5664 5666 5667 5668 5665 5661 5657 5663 5664 5664 5664 5663 5658 5658 5656 5653 5657 5657 5655 5655 5655 5653 5651 5650 5651 5651 5651 5655 5656 5655 5654
5639 5638 5638 5638 5639 5641 5643 5645 5647 5648 5650 5653 5656 5659 5661 5662 5661 5657 5655 5658 5661 5661 5661 5660 5659 5653 5651 5649 5651 5654 5653 5653 5653 5652 5651 5650 5649 5649 5648 5649 5650 5650 5650
5627 5626 5626 5627 5627 5630 5630 5632 5635 5637 5639 5643 5646 5650 5654 5656 5655 5654 5651 5651 5654 5656 5657 5658 5656 5650 5647 5645 5646 5646 5645 5645 5648 5648 5647 5646 5645 5644 5643 5642 5642 5642 5642
5615 5614 5614 5615 5616 5617 5618 5620 5623 5624 5627 5632 5636 5639 5644 5648 5649 5647 5646 5645 5645 5648 5652 5651 5648 5644 5642 5641 5639 5640 5640 5642 5644 5644 5643 5641 5641 5639 5637 5635 5635 5633 5633
5602 5602 5602 5603 5604 5604 5604 5607 5610 5613 5615 5618 5623 5627 5632 5636 5640 5642 5641 5639 5638 5638 5641 5640 5637 5636 5636 5637 5636 5636 5638 5641 5641 5640 5639 5637 5634 5632 5631 5630 5628 5627 5626
5591 5590 5589 5589 5589 5590 5592 5594 5596 5600 5601 5602 5608 5614 5619 5624 5630 5631 5632 5635 5637 5638 5637 5635 5634 5634 5634 5635 5636 5635 5635 5635 5634 5634 5633 5631 5628 5627 5625 5624 5623 5623 5622
5578 5577 5576 5575 5576 5577 5579 5583 5586 5586 5588 5589 5592 5597 5605 5609 5613 5616 5618 5622 5625 5626 5626 5630 5631 5632 5633 5633 5633 5631 5631 5630 5630 5628 5627 5626 5624 5622 5620 5617 5616 5616 5616
5564 5564 5563 5563 5563 5564 5566 5568 5573 5577 5578 5580 5583 5586 5589 5594 5598 5602 5606 5609 5612 5614 5618 5625 5628 5629 5630 5630 5629 5628 5627 5625 5624 5623 5622 5620 5619 5617 5614 5612 5610 5609 5608
5553 5552 5551 5550 5550 5551 5553 5555 5558 5563 5568 5573 5575 5576 5579 5582 5586 5590 5593 5595 5602 5606 5615 5621 5624 5625 5625 5624 5624 5623 5621 5619 5617 5617 5615 5614 5612 5610 5608 5606 5604 5602 5601
5542 5541 5540 5538 5538 5539 5541 5543 5546 5550 5554 5560 5565 5568 5569 5571 5574 5578 5582 5590 5598 5603 5608 5614 5617 5619 5619 5619 5619 5617 5616 5614 5612 5611 5609 5607 5605 5604 5602 5600 5598 5590 5592
5532 5529 5527 5527 5528 5530 5531 5533 5535 5538 5543 5548 5552 5557 5559 5561 5566 5570 5574 5584 5591 5597 5601 5606 5609 5611 5612 5612 5611 5610 5609 5608 5607 5605 5603 5601 5599 5597 5595 5592 5590 5587 5585
5521 5521 5518 5519 5520 5521 5522 5523 5525 5528 5532 5537 5541 5545 5545 5549 5556 5562 5568 5575 5582 5588 5593 5597 5601 5603 5605 5605 5605 5604 5603 5602 5601 5599 5596 5594 5592 5590 5587 5585 5583 5580 5577
5510 5510 5510 5510 5510 5511 5512 5513 5515 5518 5521 5525 5530 5534 5536 5539 5546 5553 5559 5566 5573 5578 5583 5588 5592 5595 5597 5598 5599 5598 5598 5597 5595 5592 5590 5587 5585 5582 5579 5577 5574 5571 5568
5499 5500 5500 5501 5501 5501 5502 5504 5506 5508 5511 5515 5519 5524 5528 5532 5537 5543 5550 5556 5563 5569 5573 5577 5581 5585 5587 5589 5591 5592 5593 5592 5590 5587 5584 5580 5577 5574 5572 5569 5565 5562 5560
5489 5489 5490 5491 5492 5493 5494 5496 5497 5499 5502 5506 5510 5514 5519 5524 5529 5534 5541 5547 5552 5558 5563 5568 5572 5576 5578 5580 5582 5584 5585 5585 5582 5579 5576 5573 5570 5567 5564 5561 5557 5555 5552
5480 5480 5481 5482 5484 5485 5487 5488 5489 5491 5493 5497 5501 5505 5510 5515 5520 5526 5531 5537 5543 5548 5553 5557 5562 5565 5568 5571 5573 5575 5575 5574 5573 5571 5567 5564 5561 5558 5556 5553 5549 5546 5543
5473 5473 5474 5475 5476 5477 5478 5480 5481 5483 5485 5488 5492 5496 5500 5506 5512 5517 5522 5528 5533 5538 5542 5547 5552 5556 5559 5561 5563 5564 5563 5562 5561 5560 5559 5555 5552 5549 5547 5544 5540 5537 5534